Погода в Мельнике

Чехия     50°21′07″N   14°28′29″E
темп.,
°C
ветер,
м/с
пор.,
м/с
влажн.,
%
обл.,
%
осадки,
мм/ч
давл.,
гПа
погр.,
м
27 сентября, пн
пн2723:00+16вюв227398 0.0 101821
02:00+15всв2279100 0.0 101819
05:00+14всв2284100 0.0 101718
08:00+15в1181100 0.0 101767
11:00+19ссв0167100 0.0 1018488
14:00+20юз2267100 0.1 1017636
17:00+21ююз326384 0.0 1017589
20:00+18ююз2274100 0.4 101834
28 сентября, вт
вт2823:00+18з2276100 0.0 101938
02:00+16з2285100 0.3 102032
05:00+15зсз238499 0.0 102154
08:00+15зсз238483 0.0 102277
11:00+18сз227170 0.0 1023403
14:00+22ссз225432 0.0 10211280
17:00+20с5565100 0.0 1021608
20:00+16ссв4780100 0.0 1021239
29 сентября, ср
ср2923:00+16св2482100 0.0 1021160
02:00+14всв3589100 0.0 1020131
05:00+13всв2394100 0.0 101965
08:00+14в2591100 0.0 1018174
11:00+18юв4554100 0.0 1018645
14:00+18юз6666100 0.0 1018944
17:00+17з61063100 0.0 1019983
20:00+13зюз376969 0.0 1021132
30 сентября, чт
чт3023:00+12зюз487594 0.0 1022165
02:00+13з487073 0.0 1024468
05:00+10зюз36833 0.0 1026182
08:00+9зюз59770 0.0 1028384
11:00+13з67441 0.0 10281264
14:00+15з56312 0.0 10271910
17:00+15з56315 0.0 10272057
20:00+10зюз33475 0.0 102841
1 октября, пт
пт123:00+8юз1154100 0.0 102913
02:00+9ю1255100 0.0 102818
05:00+7юв116160 0.0 102716
08:00+7вюв126183 0.0 102741
11:00+14ююв343976 0.0 1025678
14:00+18ююв453396 0.0 10221161
17:00+18ю3639100 0.0 1020426
20:00+13ююв335699 0.0 102043